Wind_Speed
13 13 13 16 17 18 20 21 23 23 23 24 25 26 27 30 32 34 34 34 35 38 41 41 40 35 25 15 7 9 13 15 15 16 13 14 19 19 17 17 15 13 10 8 7 5 4 4 6 8 10 11 10 10 9 8 8 9 11 11 11 10 10 11 12 15 17 16 13 11 10 10 12 12 14 17 20 23 25 24 23 26 29 32 34
14 12 12 16 17 18 19 21 22 21 22 24 26 27 28 30 32 33 33 32 35 39 40 40 38 32 22 12 7 9 12 13 14 15 15 18 19 18 18 16 15 12 10 8 8 7 6 6 8 10 11 11 11 11 11 10 10 11 13 13 14 13 12 12 13 14 15 14 12 12 11 11 12 13 14 16 19 21 23 24 25 29 31 33 37
14 12 13 16 17 18 19 21 21 20 21 24 26 27 28 30 31 32 32 33 37 40 40 39 36 29 19 8 10 12 12 13 14 15 15 18 18 18 17 14 12 10 8 9 10 10 8 8 9 10 10 10 11 12 12 12 13 14 15 15 16 15 13 13 13 14 13 12 13 14 14 15 14 14 17 18 18 19 21 25 27 30 33 36 37
13 13 16 18 17 18 19 20 19 19 22 25 27 27 28 29 31 32 32 34 39 41 40 38 34 26 16 8 13 15 14 14 14 14 14 17 16 15 13 11 10 8 9 10 11 10 9 8 8 9 10 11 12 13 13 14 15 15 15 15 15 15 13 13 14 14 12 12 15 17 17 16 15 16 18 18 18 20 22 26 29 32 35 34 31
13 15 18 18 16 17 18 17 17 21 23 25 27 27 28 29 32 33 33 36 40 41 39 37 31 23 14 10 14 16 14 14 13 12 13 15 13 12 11 10 9 8 9 10 11 11 10 8 9 10 11 12 13 13 14 15 16 15 15 15 14 14 14 13 13 14 12 13 16 19 19 18 18 18 19 19 20 22 24 27 30 33 32 28 27
13 15 18 16 16 17 16 15 18 22 23 26 27 27 28 30 33 34 34 38 40 40 38 35 28 20 11 12 15 15 14 12 12 13 15 14 11 10 10 9 8 7 9 11 12 12 10 10 11 12 12 12 13 13 14 15 15 14 14 14 15 15 14 13 14 15 15 16 18 20 21 21 21 20 20 19 20 23 25 27 30 29 26 25 26
13 14 16 15 16 16 14 15 19 22 23 27 27 26 29 32 34 34 36 39 40 39 38 34 26 18 11 14 16 15 13 11 14 17 16 13 11 10 9 8 7 8 9 11 13 12 11 12 12 11 11 12 13 13 14 16 15 15 14 13 14 14 13 12 14 17 19 20 21 21 22 22 21 20 20 20 22 25 26 27 26 24 23 24 26
14 14 14 14 16 14 13 15 19 21 24 26 26 28 31 33 34 35 37 39 40 40 38 32 24 16 12 16 16 14 12 11 15 19 17 13 11 9 8 7 7 8 10 12 13 12 13 13 11 10 11 13 13 13 16 18 17 16 15 13 12 11 11 12 14 18 21 22 22 22 22 21 20 20 20 21 24 25 24 22 20 21 22 23 25
14 14 12 13 14 12 14 16 18 20 23 24 25 28 31 33 34 35 38 39 40 40 38 30 22 15 14 17 16 14 13 13 16 18 15 12 10 9 8 8 8 9 10 12 13 14 13 12 11 11 13 15 15 15 19 20 19 18 15 13 13 12 13 15 17 20 22 22 22 23 23 21 20 19 20 23 24 23 22 20 19 21 21 22 23
15 14 12 13 12 12 16 17 18 18 20 22 24 27 30 32 33 35 38 39 41 41 37 29 20 15 16 17 15 14 15 15 16 16 13 11 9 9 9 8 8 9 12 14 14 14 13 12 11 13 15 16 18 19 22 21 20 20 14 13 15 15 16 18 21 24 24 24 24 25 23 20 20 20 22 22 22 23 23 21 19 19 19 20 20
16 15 13 12 12 15 17 18 19 18 19 21 22 25 29 31 32 35 37 39 41 41 38 28 19 15 15 16 15 15 16 16 15 14 11 10 10 10 9 8 9 12 15 16 16 15 14 13 13 14 16 17 19 21 23 21 20 19 12 11 16 18 20 22 24 25 25 25 26 26 23 21 21 20 20 20 22 24 22 18 16 15 17 17 16
15 15 13 13 15 18 19 18 19 18 19 20 21 24 28 30 32 34 36 39 41 41 38 28 18 15 15 15 15 16 16 15 14 12 11 10 10 10 9 10 12 15 17 17 17 18 17 16 16 17 19 19 20 21 23 22 20 18 12 7 13 19 22 25 25 27 27 25 26 25 23 21 19 18 21 23 22 18 13 12 12 14 16 15 13
13 14 13 15 18 20 21 19 17 18 19 19 21 24 27 30 31 33 36 38 41 41 38 27 17 15 14 15 15 15 15 14 13 12 11 11 11 10 10 12 15 18 19 19 19 19 19 20 21 21 21 22 22 22 22 22 19 18 15 9 11 17 20 24 26 29 28 25 26 24 20 18 19 21 22 19 13 8 9 11 13 15 14 13 12
10 11 13 16 20 21 22 19 17 17 19 19 21 23 26 29 30 32 35 38 40 40 37 27 17 15 13 14 14 14 14 13 12 12 12 12 11 11 12 16 18 19 19 20 20 19 19 21 22 22 22 23 22 21 20 21 20 19 18 17 15 15 17 23 27 28 27 25 24 19 17 20 22 20 15 9 7 7 11 12 14 15 13 12 11
11 12 15 18 21 22 22 20 17 17 19 19 20 22 25 28 29 31 34 37 39 39 37 28 17 14 13 13 14 15 14 12 12 12 11 12 11 11 15 18 20 20 20 20 20 19 20 22 21 21 22 23 22 20 18 19 21 19 17 19 18 17 17 21 28 30 29 27 21 17 19 21 18 13 9 8 8 9 11 12 14 14 12 12 11
14 15 17 19 20 21 21 20 18 17 17 18 20 21 23 26 28 30 32 36 37 38 37 29 17 14 13 14 15 14 12 12 12 11 10 11 10 12 16 18 19 19 19 19 19 21 23 24 21 19 21 22 22 19 16 16 19 18 16 18 16 17 20 21 31 35 31 27 22 20 19 17 13 9 8 8 9 10 12 13 14 14 12 12 11
15 16 18 18 18 19 20 20 18 16 17 18 19 20 22 24 26 28 31 34 36 36 36 30 18 13 14 15 15 13 11 11 10 10 9 10 10 12 15 16 17 17 17 17 19 22 23 23 20 18 20 22 23 19 15 13 14 16 17 18 16 15 18 21 31 35 30 26 22 20 17 12 10 8 8 8 10 11 13 14 15 14 13 13 12
16 17 17 16 15 17 19 18 17 16 17 18 19 20 21 23 25 27 29 32 34 34 35 31 20 12 13 14 14 12 11 11 10 9 9 9 9 11 13 14 14 13 13 14 18 22 21 20 20 19 20 21 22 20 17 13 11 15 16 17 17 14 15 20 28 32 27 22 19 16 12 8 8 8 8 9 11 12 14 15 15 15 14 13 12
14 15 15 15 13 16 18 17 16 16 16 18 19 20 21 23 24 26 28 31 33 33 33 31 22 13 10 12 12 11 10 10 9 8 9 9 9 10 11 11 11 9 9 12 17 21 20 18 19 19 21 21 20 19 18 15 10 12 14 15 17 17 17 18 25 29 23 17 15 10 8 7 7 8 9 10 12 13 14 16 16 16 14 14 13
11 12 13 13 13 15 17 15 14 14 16 18 18 19 21 22 23 24 26 29 32 32 32 31 24 15 9 8 8 8 8 8 9 8 9 9 9 10 10 9 8 8 9 12 16 18 19 17 18 20 21 22 19 18 17 15 13 10 12 15 17 21 19 15 21 25 20 15 13 10 8 7 8 9 9 10 12 14 15 17 17 16 16 16 15
10 11 11 11 12 14 15 14 13 13 15 16 17 18 20 21 21 22 24 27 30 31 30 30 26 18 10 6 6 5 5 6 7 8 9 9 10 11 10 8 8 8 9 11 13 14 17 17 18 20 22 22 20 19 17 14 13 11 13 16 17 21 20 18 19 20 19 17 16 13 11 10 9 10 10 11 13 14 15 17 19 19 18 18 17
9 10 9 10 11 12 12 12 13 13 14 14 15 17 18 19 19 20 22 25 27 29 29 28 27 21 12 7 5 4 3 4 6 8 8 9 10 11 10 8 7 9 9 10 13 13 16 16 16 20 22 21 20 20 20 15 12 11 13 16 18 21 21 21 21 19 20 22 22 18 15 13 12 12 11 12 14 15 17 19 21 21 21 21 20
10 9 9 9 9 10 10 12 13 13 13 13 15 16 16 18 18 19 21 23 25 27 28 27 26 23 15 8 4 4 4 4 5 5 5 7 9 9 8 8 7 8 8 9 11 12 15 15 15 19 19 17 18 20 22 19 15 10 9 14 19 20 20 20 21 21 21 26 27 23 19 16 16 15 14 15 16 18 19 21 23 23 24 24 25
11 10 9 9 8 9 10 12 13 14 13 13 14 15 15 16 17 18 20 21 23 25 26 26 25 24 18 11 6 3 3 3 3 2 3 3 5 7 6 6 6 5 5 8 10 12 14 15 16 16 13 12 15 18 21 20 18 13 8 12 17 18 19 19 20 21 22 27 28 26 23 19 19 18 18 19 19 21 22 23 25 26 27 28 29
11 11 10 9 9 9 10 11 13 14 13 13 14 14 15 15 16 17 19 20 21 23 25 25 24 24 20 14 9 4 1 1 1 0 2 3 1 4 4 6 4 1 3 6 9 12 14 14 16 16 12 11 14 16 18 19 19 17 12 12 15 17 19 20 19 19 21 26 26 26 26 23 22 22 22 22 23 25 26 27 28 28 30 31 31
13 13 12 10 10 9 9 11 12 13 12 13 13 13 14 15 16 17 18 18 20 21 23 25 23 23 22 18 12 7 3 2 3 3 3 5 2 2 3 6 4 2 1 4 7 10 13 13 13 15 12 12 15 16 16 17 17 16 15 13 15 18 20 21 20 17 18 21 23 26 27 26 26 26 26 26 27 28 29 30 30 31 33 33 33
17 14 11 10 10 10 9 9 11 12 11 12 13 13 15 16 15 16 16 17 19 20 22 24 23 21 22 20 16 11 7 3 4 5 5 6 3 1 3 6 5 3 1 2 5 9 13 12 11 12 12 13 17 17 16 17 14 12 15 14 13 15 18 18 17 17 16 18 23 25 26 28 28 28 28 29 30 31 32 32 32 34 35 35 35
19 15 12 12 13 12 10 9 10 11 10 11 12 13 15 16 15 15 15 16 18 19 21 24 24 21 21 22 20 16 12 7 3 5 6 5 3 1 3 6 6 4 2 1 3 7 12 11 10 11 11 13 16 16 16 17 15 12 14 16 14 12 12 11 12 17 17 18 24 26 27 29 31 31 31 31 32 33 34 34 35 36 36 37 38
20 17 15 16 16 14 12 10 10 10 10 10 11 12 14 15 14 14 14 15 17 19 20 22 24 22 20 21 22 20 17 12 5 2 4 4 3 2 3 5 5 5 4 2 2 6 10 10 9 10 10 11 14 15 15 16 16 15 15 16 15 14 12 9 10 16 17 19 23 25 27 29 31 32 32 33 33 34 35 36 37 37 38 38 38
21 18 16 18 17 15 13 12 10 10 11 10 11 12 13 14 13 13 13 14 17 19 20 21 23 23 21 20 22 22 21 17 10 2 2 3 3 4 4 4 5 5 5 3 3 4 8 10 9 9 9 9 11 14 14 15 16 16 16 15 15 14 14 13 13 14 17 20 23 24 27 30 32 33 34 34 35 35 36 37 37 38 38 39 39
21 19 18 17 16 15 15 14 11 9 10 11 10 10 11 11 10 10 11 13 16 17 19 20 21 23 22 19 20 22 22 21 16 7 1 4 4 6 5 5 6 6 6 5 3 3 5 8 7 8 8 8 10 14 13 13 15 16 16 15 15 15 15 15 16 15 15 19 23 24 26 29 31 32 33 35 36 36 37 37 38 38 39 39 39
21 21 19 15 13 13 15 17 14 10 10 9 7 7 8 7 7 8 8 11 14 15 17 19 20 22 23 20 19 20 22 22 20 13 3 4 6 7 6 6 7 7 7 5 2 2 3 4 5 6 7 8 10 12 11 11 14 15 16 15 14 14 15 15 17 17 16 19 23 24 25 27 29 31 32 33 35 36 36 37 37 38 38 39 39
22 21 19 16 12 12 16 19 17 13 10 9 7 7 7 5 4 6 7 9 12 14 16 18 19 20 21 20 18 19 20 21 21 18 10 3 7 8 7 7 7 7 7 5 2 2 2 2 3 4 6 7 7 8 10 10 12 14 15 15 14 14 15 15 16 18 18 20 22 25 25 26 27 30 31 32 33 34 35 36 36 37 38 38 39
23 22 21 19 15 14 18 19 17 16 12 11 11 10 10 7 5 6 8 9 11 13 16 18 19 18 19 19 18 17 19 20 20 20 15 6 7 9 9 8 8 8 8 6 3 3 3 2 1 2 4 4 4 5 8 9 11 14 15 14 14 14 15 15 16 18 19 21 22 25 26 27 28 29 31 32 32 33 34 35 36 36 37 37 38
22 21 21 20 18 18 20 18 16 16 15 15 13 13 13 10 7 7 8 10 11 14 16 17 18 17 17 18 18 17 17 19 19 19 18 11 5 10 11 10 9 9 9 8 5 4 4 3 4 0 3 2 2 3 5 8 10 12 13 14 13 15 16 16 16 18 20 22 23 25 27 28 29 30 31 32 32 33 34 34 35 36 36 37 38
23 20 20 20 20 21 22 19 16 15 15 14 13 14 16 13 10 9 10 13 14 17 18 18 18 16 15 18 18 17 16 18 19 18 18 15 8 9 13 12 11 10 10 9 7 6 5 5 6 3 2 1 1 2 3 6 8 10 12 12 13 14 16 16 17 19 21 23 24 25 27 28 29 30 31 32 33 34 35 35 36 36 37 37 38
24 21 20 23 23 22 22 22 18 17 18 15 12 14 17 16 15 14 15 18 20 22 22 19 18 17 17 19 19 18 16 17 18 18 18 17 12 7 12 14 12 11 10 10 8 7 6 6 8 5 2 2 0 1 2 4 6 8 10 11 12 13 15 16 17 19 21 23 24 24 26 27 28 29 30 31 32 33 35 35 36 36 37 37 37
27 24 23 24 26 24 22 22 21 20 22 20 16 15 17 17 17 16 17 21 24 25 24 21 19 19 20 21 21 19 16 16 17 17 18 18 15 8 9 15 15 13 12 11 10 8 7 8 8 6 4 3 1 1 1 4 5 7 9 10 11 12 14 15 16 19 21 21 22 23 24 26 27 29 30 31 31 32 33 34 34 35 35 35 35
30 29 27 26 28 27 23 21 21 21 24 27 24 20 19 18 18 17 18 23 26 25 23 22 21 21 22 22 22 20 17 16 16 16 17 17 16 11 6 13 17 15 14 13 11 9 9 9 8 7 6 5 3 1 1 3 5 6 8 9 10 11 12 13 14 17 19 20 20 21 22 24 25 27 29 30 31 32 32 33 33 33 33 33 33
32 32 30 28 28 26 22 19 19 19 22 26 28 28 26 23 24 23 23 26 28 26 24 23 21 20 20 20 20 19 17 16 15 16 16 16 16 13 6 10 17 17 16 15 14 12 10 9 8 7 7 7 5 2 0 3 4 5 7 8 9 9 10 10 12 15 17 18 18 19 20 21 23 25 27 29 30 31 32 32 32 32 32 31 31
32 32 30 28 26 24 21 19 19 18 18 20 23 27 30 28 27 28 27 27 28 27 26 25 20 18 17 17 18 18 18 18 16 16 15 15 15 13 8 5 14 18 17 17 16 13 11 10 9 8 9 8 6 4 1 3 4 6 7 7 7 8 8 9 11 13 15 16 16 17 17 18 20 22 25 27 28 29 29 29 29 29 29 28 28
30 30 28 26 25 23 20 20 22 22 19 18 19 20 23 25 27 28 28 29 30 28 29 27 22 18 16 15 17 18 19 20 18 16 16 15 14 12 8 4 11 17 18 18 17 15 12 11 10 10 10 9 7 5 2 2 4 7 8 7 7 7 8 9 10 11 14 15 14 14 14 15 17 20 22 24 25 26 27 27 27 27 26 26 26
29 28 26 25 25 23 21 21 23 24 22 19 16 15 17 20 22 23 24 27 27 26 28 26 22 19 16 16 18 19 19 19 18 17 17 15 14 12 8 3 8 15 17 19 18 16 14 12 11 10 10 9 7 5 3 2 4 8 10 9 8 8 8 9 10 10 13 14 13 12 12 13 14 17 19 21 23 24 24 25 25 25 25 24 24
29 28 26 25 24 24 22 21 23 25 24 21 20 19 19 20 20 20 22 25 23 19 20 22 22 21 18 18 19 20 19 17 17 18 18 16 14 12 8 2 6 13 16 18 19 17 15 13 12 11 9 9 7 6 4 4 6 9 11 10 10 10 9 9 10 10 12 14 14 12 11 11 12 14 16 18 20 21 22 22 22 22 22 22 22
30 29 27 25 25 25 23 23 23 25 25 24 25 23 20 21 22 23 24 26 23 16 17 22 24 22 20 19 19 19 18 15 14 16 17 17 15 14 9 3 5 13 16 18 20 19 16 15 13 11 10 9 8 7 6 5 7 11 11 11 11 11 10 9 10 11 11 13 15 13 11 10 11 13 14 16 18 19 19 20 20 20 20 20 20
30 29 28 27 26 26 25 23 23 25 27 28 28 27 24 24 25 27 27 27 25 20 20 24 24 22 21 20 18 18 18 15 13 13 15 16 15 15 12 6 4 12 17 19 20 20 19 16 14 12 11 11 10 9 8 6 8 12 13 13 12 11 10 9 10 11 11 13 15 15 13 10 10 11 13 14 16 17 17 18 18 18 18 18 17
32 31 30 29 28 28 27 23 20 21 24 27 28 27 27 27 27 29 30 29 28 26 26 27 24 22 22 21 19 20 20 16 12 12 13 14 14 15 14 9 4 10 17 20 22 22 20 18 16 14 13 12 12 11 10 7 9 13 15 14 13 11 10 10 11 11 12 13 14 15 14 11 10 10 12 14 14 15 15 15 16 16 16 16 15
33 33 32 31 31 31 29 24 21 20 21 23 25 26 28 29 29 31 31 30 29 29 30 29 24 22 22 21 20 21 21 18 14 12 12 12 12 13 14 12 6 9 16 21 23 24 22 20 17 15 14 13 13 13 11 9 9 13 16 16 14 11 10 11 11 11 12 13 13 14 15 13 11 10 12 13 13 13 13 13 14 14 14 14 13
31 32 33 33 33 33 33 29 26 24 22 23 25 27 28 28 28 30 31 31 29 28 28 27 24 23 23 19 18 18 19 20 19 16 15 12 11 11 12 13 9 7 15 21 23 24 24 21 19 17 15 15 14 14 13 11 10 13 16 16 16 14 11 11 12 12 12 13 13 13 14 14 13 12 12 13 13 13 12 12 12 12 12 12 12
30 30 31 32 33 34 35 32 30 29 27 27 27 28 28 26 26 28 29 29 27 26 25 24 24 25 23 18 15 17 19 22 23 21 17 14 12 11 11 12 11 8 13 20 23 24 24 23 21 19 17 16 15 14 14 14 12 12 15 16 16 15 13 12 12 13 13 13 13 13 13 13 14 13 14 14 13 12 11 11 11 11 10 10 10
34 33 32 32 33 33 33 32 31 29 28 27 28 29 29 28 27 28 28 27 26 25 23 22 22 24 23 18 14 17 21 23 25 23 18 15 13 12 11 11 11 9 12 19 23 23 24 24 22 20 18 16 15 15 15 15 14 13 14 15 15 15 14 13 13 13 14 14 14 13 13 13 14 14 14 14 14 13 11 10 10 10 9 9 8
Wind_Direction
335 336 350 355 357 358 357 358 356 356 359 1 0 357 355 352 351 353 350 351 352 351 349 348 350 351 351 357 39 95 112 118 115 109 109 125 133 133 129 125 121 116 110 98 81 64 58 59 54 45 33 31 42 51 49 39 22 5 352 344 341 339 339 340 336 325 315 314 311 301 295 287 285 289 295 300 304 302 302 304 306 308 305 299 293
335 332 345 352 357 358 358 358 356 359 3 1 360 357 355 351 353 354 352 355 355 354 351 349 352 354 355 5 68 92 107 109 108 108 114 128 132 131 128 126 123 120 112 95 70 52 52 61 50 38 34 41 47 46 39 27 10 355 344 337 333 332 335 341 340 333 324 319 315 308 301 288 286 287 289 295 300 303 306 308 307 308 306 300 293
335 332 344 350 356 359 359 357 358 4 3 359 359 357 354 352 355 356 356 359 358 356 352 352 354 358 4 27 96 100 106 103 104 107 114 128 130 128 126 123 118 109 95 77 54 42 52 57 45 38 43 50 44 36 26 15 2 350 341 332 324 323 328 340 341 336 329 317 314 313 303 294 292 289 291 296 302 308 309 307 307 307 303 297 295
340 336 343 346 354 359 359 359 1 3 360 358 359 357 354 354 358 359 359 360 358 357 353 354 357 2 17 65 110 110 109 103 103 103 113 124 122 119 114 107 97 81 74 62 46 50 66 59 47 48 52 48 35 24 16 10 0 351 345 336 328 326 330 343 346 340 332 316 311 313 309 305 303 299 302 307 312 312 306 306 308 305 300 298 301
343 337 339 342 354 359 359 1 3 1 0 1 0 358 355 357 1 1 1 360 359 357 355 357 360 6 32 89 113 110 104 101 102 104 115 118 111 106 97 87 75 66 67 56 55 72 77 63 57 57 50 36 22 14 9 6 0 354 351 345 340 339 341 347 351 344 334 317 310 311 310 309 310 311 314 315 315 311 310 311 306 301 301 307 311
342 338 337 339 355 360 358 359 2 2 2 3 2 359 358 1 2 2 2 0 359 358 357 358 3 14 48 105 114 107 102 103 112 119 121 116 108 99 90 79 69 68 62 56 71 84 77 68 65 55 40 24 13 6 3 4 1 359 356 351 346 346 347 348 349 344 334 322 316 313 310 308 310 314 316 318 319 317 313 306 300 303 312 317 317
343 343 339 342 358 360 355 356 1 2 4 6 4 3 2 3 2 3 3 1 2 0 359 0 8 24 64 110 113 104 100 109 124 128 125 117 108 99 89 79 74 66 55 65 82 84 79 76 65 46 27 12 6 5 8 9 7 5 5 0 350 348 349 346 342 339 337 329 324 320 316 310 310 315 317 322 323 315 305 300 305 315 320 321 321
346 348 341 346 2 359 352 357 359 3 8 8 5 4 3 2 2 4 4 3 5 3 1 3 15 37 81 109 110 103 101 113 131 132 125 116 110 104 92 82 72 57 58 76 85 87 88 78 57 36 19 11 11 14 18 17 14 9 10 9 356 349 349 342 333 332 336 333 328 325 322 317 316 320 324 330 322 307 307 315 322 324 322 323 323
347 350 340 350 6 354 349 355 357 3 10 8 4 3 2 1 2 5 5 6 7 5 3 6 22 56 99 111 111 107 106 118 133 133 124 117 113 105 94 81 62 58 72 83 89 94 88 67 49 35 25 22 21 23 22 19 17 10 8 8 0 357 352 342 337 335 336 335 330 329 328 323 321 327 332 327 312 308 325 335 328 323 322 323 324
346 347 338 350 3 347 348 355 354 360 7 7 3 2 3 2 4 6 7 8 8 7 6 9 31 72 107 112 108 106 111 121 130 129 123 118 110 103 94 77 64 74 85 88 91 87 71 54 47 37 32 27 22 24 24 22 19 13 8 1 2 2 354 347 344 342 340 336 331 332 332 328 329 331 325 313 306 318 330 328 321 320 322 325 328
342 342 336 347 353 345 349 352 351 354 2 4 1 2 5 4 6 8 9 10 10 9 9 14 40 81 108 110 105 107 113 120 125 124 123 116 108 102 90 76 77 88 89 86 81 70 60 53 46 37 33 27 20 19 22 25 22 18 12 353 358 359 354 351 346 344 339 333 332 332 331 331 332 325 312 306 313 321 321 317 320 326 329 332 336
337 338 338 345 348 347 348 348 349 351 359 2 0 4 7 7 7 9 10 11 11 11 11 18 47 85 104 107 106 107 111 115 118 118 118 113 108 100 84 82 90 92 86 80 73 66 59 50 40 35 32 26 20 17 22 27 25 24 22 345 340 349 353 353 346 342 337 332 332 330 332 331 323 311 304 309 315 318 320 326 337 339 339 340 349
335 337 340 346 347 347 346 345 348 351 357 359 359 4 9 9 8 9 10 12 13 13 13 19 51 85 98 102 102 101 104 107 110 111 111 106 101 91 82 91 93 89 83 77 71 62 51 38 31 31 29 25 22 22 25 28 29 28 30 15 342 340 345 352 345 340 338 333 333 335 336 326 311 308 309 315 325 340 347 348 353 350 347 353 4
335 333 333 340 345 346 346 345 345 347 352 356 357 3 11 11 10 10 10 13 14 15 16 21 51 85 92 94 93 93 97 98 101 99 97 94 89 83 86 94 93 89 83 75 64 53 44 31 24 27 28 27 26 27 29 32 34 30 24 18 6 349 336 345 346 339 337 334 339 341 328 314 312 318 327 347 14 13 360 359 3 358 357 7 19
314 318 324 334 340 345 345 345 344 342 346 352 356 2 11 13 11 10 11 13 15 17 19 22 49 83 88 88 89 91 94 91 89 86 84 84 79 77 89 95 93 87 78 68 57 49 41 28 20 25 29 32 32 33 34 34 36 35 22 9 7 360 342 341 348 344 339 340 342 332 318 318 327 342 6 29 31 20 10 11 13 8 10 21 33
305 313 321 329 337 343 344 344 345 341 343 350 357 1 8 13 11 9 11 14 15 18 21 24 44 81 89 89 94 93 89 83 80 80 80 77 72 79 92 96 92 85 74 65 56 47 37 26 23 28 34 38 40 41 38 32 30 32 23 11 3 354 349 339 344 347 344 344 340 330 329 337 352 10 29 43 40 30 20 21 23 19 23 33 45
310 316 319 326 335 343 344 344 348 344 342 349 357 0 4 11 11 9 12 14 16 19 22 25 38 78 94 96 97 89 82 79 80 81 78 71 68 85 97 98 92 86 76 67 55 46 36 28 27 32 39 43 47 49 46 36 24 21 17 16 10 354 348 331 335 345 345 344 339 336 342 353 12 29 43 55 46 35 29 30 30 28 35 43 54
316 319 318 321 329 339 341 341 349 347 343 349 357 360 2 9 10 9 12 14 16 19 24 26 33 67 98 102 95 85 80 82 87 82 74 67 72 93 104 105 99 92 80 63 54 49 39 29 28 35 43 47 51 54 51 45 21 15 18 17 15 1 340 323 333 346 346 346 344 342 355 13 31 44 55 62 51 40 37 37 38 39 44 50 62
324 324 321 317 318 331 336 335 344 347 344 349 356 358 1 7 9 10 12 14 16 19 24 27 31 50 92 108 96 82 80 86 92 84 72 67 80 106 114 115 107 93 74 57 58 54 42 32 29 36 43 47 50 51 52 52 35 20 21 18 15 4 345 326 335 347 352 357 358 1 25 38 45 57 64 62 50 43 43 43 45 49 53 58 69
337 332 324 316 311 324 330 330 338 344 344 349 354 357 360 4 9 10 12 14 15 19 23 26 31 41 73 112 111 85 81 90 93 87 74 71 94 118 121 117 104 82 69 64 67 55 38 32 31 37 42 43 44 44 49 58 60 51 33 27 17 8 3 340 333 349 5 15 21 36 50 52 62 71 69 59 50 48 49 49 51 58 62 65 74
337 335 325 313 310 320 325 326 335 341 342 347 352 354 358 4 9 11 12 14 15 18 21 26 30 36 57 104 134 114 93 92 95 93 80 83 110 123 119 107 93 79 74 68 65 47 31 34 36 40 43 40 39 38 44 60 67 61 46 41 25 10 8 354 347 4 23 36 43 51 57 63 76 82 77 63 56 55 55 56 60 64 67 69 77
316 321 315 307 308 317 321 326 333 337 338 344 349 351 357 3 9 13 13 12 14 17 19 23 28 33 45 78 128 140 121 102 97 97 84 94 117 121 114 99 90 87 80 65 57 41 28 38 45 45 43 35 32 31 38 51 56 57 46 42 31 12 4 1 9 24 37 49 52 53 60 67 80 87 82 69 65 63 61 64 68 70 72 73 78
295 300 302 302 307 315 325 332 334 334 334 338 344 348 354 2 7 13 13 10 12 15 17 21 26 30 36 51 88 121 127 118 101 96 78 93 117 120 114 105 100 92 77 60 55 42 31 44 54 49 44 34 29 29 36 40 38 51 48 37 31 15 7 9 17 31 47 56 54 56 62 67 79 83 81 74 72 70 67 71 75 76 77 77 80
282 287 289 293 302 316 331 340 341 337 334 335 341 346 352 0 5 9 12 10 10 13 16 18 23 28 32 36 42 80 124 134 113 94 54 73 122 124 121 125 115 90 64 55 54 46 39 49 59 60 58 49 41 35 39 39 33 43 46 37 34 20 16 20 23 32 52 57 54 60 64 69 78 81 81 78 76 76 75 79 80 81 81 81 81
280 286 282 287 303 318 335 343 342 339 338 340 343 348 353 359 4 6 11 12 10 12 15 17 20 24 28 31 27 24 42 176 202 12 22 4 105 132 142 155 145 82 42 61 60 50 46 51 66 82 83 69 60 50 48 44 35 35 35 32 36 32 27 29 32 36 53 60 58 63 67 73 80 82 84 82 82 83 83 85 85 85 84 83 84
286 290 283 288 302 315 331 338 338 338 342 345 349 353 356 358 2 5 9 13 12 12 13 15 19 21 24 27 26 18 349 270 252 286 334 351 355 156 158 167 181 274 345 65 61 48 46 50 71 88 83 71 68 63 62 57 44 34 35 33 29 33 33 34 39 42 54 61 63 66 70 76 82 85 87 87 88 88 88 89 89 88 87 87 87
279 284 287 289 297 306 317 328 330 332 339 348 352 356 359 358 1 3 7 14 15 12 11 13 17 19 20 23 23 21 6 321 261 266 299 337 351 189 148 166 199 261 270 59 48 39 41 48 63 73 71 68 64 62 68 69 64 49 49 53 39 32 31 31 39 47 56 65 69 71 75 80 84 86 88 90 90 90 90 91 91 91 90 90 90
272 275 284 283 290 299 299 309 318 322 327 337 346 348 352 355 358 1 5 11 14 13 10 9 14 17 17 18 19 19 15 3 299 257 273 308 325 206 152 173 209 240 234 341 24 27 33 43 55 61 69 69 59 59 65 68 72 67 62 65 66 60 49 41 46 54 64 73 73 75 79 84 86 87 88 90 91 91 91 91 92 92 92 91 90
279 278 282 279 286 298 298 300 302 307 309 313 327 332 338 346 353 358 1 6 9 10 9 8 10 14 15 15 16 16 15 12 2 266 253 276 283 219 181 187 214 232 234 270 339 15 28 40 57 63 72 70 57 56 61 63 66 68 64 63 69 76 78 81 68 59 66 76 76 76 82 86 87 88 89 90 91 91 91 91 91 92 92 91 91
280 277 277 276 282 296 303 306 299 294 294 294 306 314 322 333 344 354 357 0 5 7 9 8 7 9 12 12 14 14 13 13 11 6 215 241 236 210 196 192 208 232 234 248 302 359 26 35 57 70 69 66 58 55 56 59 63 65 63 58 61 69 75 79 78 68 69 77 81 81 84 87 89 90 91 92 93 93 92 92 92 92 92 93 93
274 272 275 273 276 293 303 303 292 278 281 282 291 301 309 321 333 345 351 356 3 6 8 8 5 5 7 9 11 13 12 12 11 9 189 205 211 200 198 198 202 225 234 240 286 332 14 28 54 70 62 55 53 55 54 54 61 65 62 56 55 60 66 71 79 81 76 79 85 87 86 87 89 90 91 93 94 94 94 94 94 94 94 94 94
268 269 273 269 268 284 291 288 277 266 273 278 289 308 309 308 320 332 339 348 356 0 2 2 360 359 1 3 8 12 12 11 10 6 352 199 203 197 195 199 202 216 230 236 266 298 337 17 51 65 63 55 48 53 55 52 60 65 64 59 53 57 64 70 79 86 86 87 90 94 92 89 89 90 92 93 93 94 95 95 95 95 96 96 96
261 263 266 263 261 270 275 277 279 279 285 298 315 330 323 306 302 316 325 336 345 350 352 352 352 352 355 359 3 9 10 10 11 6 355 241 204 199 196 196 200 208 222 229 226 257 288 342 39 70 74 60 47 52 57 56 63 67 67 63 56 58 66 73 81 87 91 92 94 96 97 96 94 93 93 93 93 94 95 95 96 96 96 96 96
254 256 259 259 259 264 268 271 279 282 288 306 319 324 318 310 302 303 314 325 335 341 345 347 348 347 351 357 360 4 8 9 10 8 359 325 221 206 203 197 197 202 214 219 200 230 256 276 314 83 94 70 55 57 61 61 67 72 72 69 63 63 69 76 85 90 94 96 97 98 98 100 100 98 97 96 96 96 95 95 95 95 95 96 96
248 250 258 261 261 265 269 272 277 280 287 296 306 318 316 312 308 304 315 324 331 339 341 345 345 344 349 356 358 0 4 6 8 8 3 346 269 217 208 201 198 198 209 214 195 220 236 244 262 187 110 97 66 41 57 66 72 78 79 78 72 70 74 80 89 95 98 99 100 100 100 100 101 100 99 99 99 98 97 96 96 96 96 96 96
246 251 258 262 262 265 270 275 278 280 287 294 299 308 312 315 313 314 328 334 338 341 340 341 342 340 342 350 355 358 0 3 5 6 5 355 323 237 214 204 202 199 205 211 199 213 224 229 251 249 139 140 83 11 43 68 77 84 86 88 84 77 80 86 94 101 102 102 101 101 102 101 101 101 101 100 100 99 98 98 97 97 97 98 98
241 245 253 260 264 267 271 276 280 278 282 295 303 300 301 311 320 319 318 326 336 338 335 336 337 334 331 335 344 352 356 358 3 4 4 0 345 279 223 208 202 202 203 210 206 211 222 225 243 240 188 191 152 358 35 75 88 95 95 98 96 87 86 90 100 106 106 104 103 102 102 102 102 102 101 101 100 100 99 99 99 99 99 99 99
234 234 240 253 260 264 268 274 280 279 278 287 299 302 299 305 318 319 307 313 326 330 329 329 329 327 324 324 331 342 350 353 359 3 3 1 355 325 238 211 203 202 201 208 208 213 228 229 234 227 203 210 203 356 29 88 102 111 107 105 108 101 94 95 106 112 110 106 104 102 102 102 103 103 103 103 102 101 100 100 99 99 100 100 99
235 234 236 243 253 260 264 267 274 282 282 283 288 292 297 301 307 309 302 307 316 320 325 325 321 320 318 319 323 332 344 349 355 1 2 1 358 346 271 216 206 203 203 205 206 210 226 231 227 218 209 217 220 287 18 97 115 131 122 113 117 115 106 102 110 119 117 111 107 104 102 103 103 105 105 105 104 103 102 101 101 100 100 100 99
238 239 240 245 253 258 260 260 266 275 276 277 280 283 289 296 300 301 301 306 310 312 319 322 320 321 320 321 322 327 338 344 351 358 360 1 359 354 322 228 209 205 205 205 204 205 218 227 225 219 216 218 223 241 268 111 129 153 142 125 125 129 124 114 115 124 125 119 113 108 105 105 106 107 107 107 107 106 104 103 102 101 100 99 98
241 242 244 248 253 255 259 259 251 248 251 256 263 272 280 287 294 298 300 305 307 307 312 315 315 318 320 324 325 328 336 338 343 353 356 359 0 357 344 255 216 209 207 206 205 203 210 221 225 226 225 221 223 230 201 130 147 172 169 149 135 139 141 130 123 130 135 131 121 114 110 110 110 111 112 111 110 109 107 106 104 103 101 99 98
244 245 249 251 251 251 256 255 244 238 241 243 246 257 270 280 288 294 299 304 304 302 306 307 304 304 306 312 320 327 333 333 335 344 350 354 359 358 352 297 224 214 210 207 205 204 206 214 221 226 229 224 222 229 212 161 168 181 187 181 160 153 153 144 134 136 145 145 134 123 116 116 117 117 117 116 114 112 110 109 107 105 104 102 100
245 247 251 251 251 254 258 252 240 237 241 245 249 254 260 265 271 279 289 294 293 295 303 305 299 294 290 291 303 317 325 327 329 336 343 348 353 356 354 321 226 216 213 208 205 206 207 211 218 224 229 225 221 229 226 209 195 188 193 196 180 166 164 156 147 145 153 158 152 136 124 123 124 123 123 120 117 115 113 111 110 108 107 105 102
243 246 250 250 252 258 262 255 241 237 241 246 252 257 261 262 260 268 275 275 274 278 289 294 290 283 277 277 289 304 315 320 322 327 336 342 347 350 350 325 216 211 212 210 206 207 209 212 216 221 227 223 220 227 229 231 209 192 194 199 185 172 172 166 159 156 159 166 167 155 137 131 133 132 130 127 123 119 117 115 112 111 109 107 104
241 244 248 249 251 256 259 258 248 240 239 242 248 255 263 266 265 265 264 263 265 259 257 270 278 277 271 271 282 297 306 312 315 318 328 335 340 344 343 322 210 203 208 211 208 206 208 213 215 219 223 221 219 222 227 231 206 192 194 196 185 174 176 173 166 164 166 170 173 169 155 140 139 140 138 135 130 126 122 119 116 114 112 110 107
239 243 246 247 249 252 253 255 255 249 244 244 248 252 255 259 260 260 258 259 263 258 250 261 273 278 275 277 284 292 298 305 306 307 318 328 333 338 339 325 223 200 202 207 209 207 206 210 214 217 221 218 219 221 223 222 201 191 193 194 184 174 176 180 173 170 172 174 177 178 173 157 147 146 145 144 139 134 128 124 122 119 117 115 112
240 241 243 244 247 250 249 251 256 257 251 247 248 250 253 257 259 260 262 261 261 259 257 260 268 276 279 284 287 287 289 294 298 298 306 319 326 332 337 329 263 206 200 201 204 206 205 208 212 214 218 218 217 221 220 216 200 193 194 195 187 176 177 184 182 176 175 179 181 183 183 175 163 156 155 152 148 143 136 132 129 127 124 121 118
241 241 241 243 246 249 248 248 251 255 255 251 250 253 256 258 258 257 259 260 259 258 258 259 263 271 276 281 286 288 288 290 293 299 301 308 318 324 333 330 297 220 204 200 199 201 203 206 210 212 215 218 218 219 219 217 207 198 197 199 197 190 185 186 187 183 180 181 183 185 188 186 180 172 166 162 157 152 147 141 137 133 131 128 124
242 242 242 244 247 249 249 246 247 250 254 256 252 250 251 254 255 253 252 253 255 255 258 259 260 266 270 272 281 287 285 283 289 299 300 299 308 317 326 329 313 246 211 203 198 197 199 203 209 210 212 216 218 218 217 218 216 206 201 203 206 208 201 192 191 190 187 184 182 185 189 190 190 185 178 172 168 164 159 151 144 139 137 134 130
244 244 246 248 250 251 251 250 250 252 257 262 257 250 248 249 250 248 246 247 250 253 257 259 258 260 261 261 272 275 266 266 276 290 298 297 303 313 321 326 319 275 221 207 200 196 197 200 206 210 211 213 216 217 216 217 220 215 208 206 210 214 211 202 197 195 193 189 185 185 187 190 192 190 186 182 178 175 171 162 153 148 143 139 135
244 243 244 248 251 252 251 250 253 256 259 263 260 253 251 251 249 246 245 248 252 254 255 256 254 252 249 248 260 266 258 256 267 283 294 297 301 308 315 320 318 292 237 213 205 199 197 199 203 209 211 211 213 216 216 216 220 222 217 212 211 214 215 210 203 199 197 195 191 190 189 191 193 192 191 190 188 185 180 173 165 158 151 144 135
Height
11000 10999 10999 10998 10996 10995 10994 10992 10991 10989 10988 10986 10984 10983 10982 10980 10978 10976 10973 10970 10967 10963 10960 10955 10952 10947 10944 10943 10942 10942 10943 10944 10945 10946 10947 10950 10951 10953 10955 10956 10957 10958 10959 10958 10958 10958 10959 10959 10960 10961 10962 10962 10962 10962 10962 10961 10961 10960 10959 10958 10958 10959 10958 10958 10956 10953 10949 10949 10950 10952 10954 10954 10952 10951 10950 10947 10944 10941 10939 10939 10938 10938 10938 10936 10934
11000 10999 10999 10998 10997 10995 10994 10992 10991 10990 10988 10986 10985 10983 10982 10980 10978 10976 10973 10970 10967 10963 10960 10956 10952 10948 10945 10943 10943 10943 10944 10945 10946 10946 10948 10950 10952 10954 10956 10957 10958 10959 10959 10960 10959 10959 10959 10959 10960 10961 10961 10962 10962 10962 10962 10962 10961 10960 10959 10958 10957 10957 10957 10957 10956 10953 10949 10946 10947 10949 10951 10951 10951 10950 10950 10949 10945 10941 10938 10936 10935 10934 10934 10932 10930
11000 10999 10999 10998 10997 10996 10994 10993 10991 10990 10989 10987 10985 10983 10982 10980 10978 10976 10973 10970 10967 10964 10960 10956 10952 10948 10946 10944 10943 10944 10945 10946 10946 10947 10948 10950 10952 10954 10956 10957 10958 10959 10959 10959 10959 10959 10959 10959 10960 10960 10961 10962 10962 10962 10963 10962 10962 10960 10959 10957 10956 10956 10956 10956 10955 10953 10949 10945 10944 10945 10946 10947 10947 10947 10947 10946 10944 10942 10938 10936 10933 10932 10931 10929 10926
11000 10999 10998 10998 10997 10996 10995 10993 10992 10990 10989 10987 10985 10983 10982 10980 10978 10976 10973 10970 10967 10963 10960 10956 10951 10948 10946 10945 10945 10945 10946 10946 10947 10947 10949 10951 10952 10954 10955 10957 10958 10958 10959 10959 10959 10959 10959 10959 10960 10960 10961 10962 10962 10962 10962 10962 10961 10960 10959 10957 10955 10954 10954 10955 10954 10953 10951 10946 10943 10943 10943 10942 10943 10943 10943 10942 10940 10939 10937 10935 10932 10930 10928 10925 10922
11000 10999 10998 10998 10997 10997 10995 10993 10992 10990 10989 10987 10985 10984 10982 10981 10978 10976 10973 10970 10967 10963 10959 10955 10951 10948 10946 10946 10946 10946 10947 10947 10948 10949 10950 10951 10953 10954 10956 10957 10958 10958 10959 10959 10959 10959 10960 10960 10960 10961 10961 10962 10962 10962 10962 10962 10961 10959 10957 10956 10954 10953 10952 10953 10953 10953 10952 10949 10945 10943 10942 10940 10939 10939 10938 10937 10936 10935 10933 10932 10930 10928 10925 10921 10917
11001 10999 10998 10998 10998 10997 10995 10994 10993 10991 10989 10987 10985 10984 10983 10981 10979 10976 10973 10970 10967 10963 10959 10955 10951 10949 10947 10947 10948 10948 10949 10949 10950 10951 10952 10953 10954 10956 10957 10958 10958 10959 10959 10960 10960 10960 10961 10961 10961 10961 10962 10962 10962 10962 10962 10961 10960 10958 10957 10955 10953 10952 10951 10951 10952 10952 10951 10949 10946 10944 10941 10939 10938 10936 10935 10934 10933 10932 10931 10930 10928 10925 10921 10917 10914
11000 10999 10998 10998 10997 10997 10996 10995 10993 10991 10989 10987 10986 10985 10983 10981 10979 10977 10974 10970 10967 10962 10958 10954 10951 10949 10948 10948 10950 10950 10951 10952 10952 10953 10954 10955 10956 10957 10958 10959 10959 10959 10960 10960 10960 10961 10962 10962 10962 10962 10962 10962 10962 10961 10961 10960 10958 10957 10956 10955 10953 10951 10949 10949 10950 10950 10949 10947 10945 10943 10941 10938 10936 10935 10934 10932 10931 10930 10929 10928 10925 10921 10918 10915 10912
11000 10999 10998 10997 10997 10996 10996 10995 10994 10992 10990 10988 10986 10985 10983 10981 10979 10977 10974 10970 10967 10962 10958 10954 10951 10950 10949 10950 10951 10952 10952 10953 10955 10955 10956 10957 10958 10959 10959 10960 10960 10960 10960 10961 10962 10962 10963 10964 10964 10964 10963 10963 10962 10961 10960 10959 10958 10956 10955 10954 10953 10951 10948 10948 10948 10948 10947 10946 10944 10942 10940 10937 10935 10934 10932 10930 10929 10928 10927 10924 10921 10919 10916 10914 10911
10999 10998 10998 10997 10997 10996 10996 10995 10994 10992 10991 10989 10987 10986 10984 10982 10979 10977 10974 10970 10967 10963 10959 10955 10952 10951 10951 10952 10953 10953 10954 10955 10956 10957 10958 10959 10960 10960 10960 10961 10961 10961 10961 10962 10963 10964 10964 10965 10965 10965 10964 10962 10961 10960 10959 10959 10958 10956 10954 10953 10953 10951 10949 10947 10946 10945 10945 10944 10942 10940 10938 10936 10935 10933 10931 10929 10928 10926 10923 10921 10920 10918 10916 10914 10911
10998 10998 10997 10997 10996 10996 10996 10995 10994 10992 10991 10990 10988 10986 10984 10982 10980 10977 10974 10971 10967 10964 10960 10956 10954 10953 10953 10954 10954 10955 10955 10956 10957 10959 10959 10960 10961 10961 10962 10962 10962 10962 10963 10963 10964 10965 10965 10966 10965 10965 10964 10962 10961 10960 10959 10959 10958 10956 10954 10953 10952 10951 10950 10948 10945 10943 10942 10942 10940 10939 10937 10936 10934 10932 10930 10929 10927 10925 10923 10922 10920 10918 10916 10913 10911
10997 10997 10997 10997 10996 10996 10995 10995 10993 10992 10991 10990 10989 10987 10985 10983 10981 10978 10975 10972 10969 10965 10961 10958 10956 10956 10956 10956 10956 10957 10957 10958 10959 10960 10961 10961 10962 10963 10963 10963 10964 10964 10964 10964 10965 10965 10966 10966 10965 10965 10964 10962 10961 10960 10959 10958 10958 10956 10954 10952 10951 10950 10950 10947 10944 10942 10940 10939 10938 10937 10936 10934 10933 10932 10930 10928 10926 10925 10923 10922 10920 10918 10915 10913 10910
10997 10997 10997 10996 10996 10995 10995 10994 10993 10992 10991 10990 10989 10988 10986 10984 10982 10979 10977 10973 10970 10966 10962 10959 10958 10958 10958 10958 10959 10959 10960 10960 10961 10961 10962 10963 10963 10964 10964 10965 10965 10965 10965 10965 10965 10966 10966 10966 10966 10964 10963 10962 10961 10960 10959 10958 10958 10957 10955 10953 10951 10950 10949 10946 10944 10941 10939 10936 10935 10934 10933 10932 10932 10931 10929 10927 10925 10924 10923 10921 10919 10917 10914 10912 10909
10996 10996 10996 10996 10996 10995 10994 10994 10992 10991 10990 10989 10989 10987 10986 10984 10982 10980 10977 10975 10971 10967 10963 10960 10959 10960 10960 10960 10961 10961 10961 10962 10962 10963 10963 10964 10964 10964 10965 10965 10966 10966 10966 10966 10966 10966 10967 10966 10966 10964 10963 10962 10961 10960 10958 10958 10957 10957 10956 10954 10953 10951 10949 10947 10944 10941 10938 10935 10933 10931 10931 10930 10929 10928 10927 10925 10923 10923 10921 10920 10917 10916 10913 10911 10909
10996 10996 10995 10995 10995 10995 10994 10993 10992 10991 10990 10989 10988 10987 10985 10984 10982 10980 10978 10975 10972 10969 10965 10962 10961 10962 10963 10963 10963 10963 10963 10963 10963 10964 10964 10964 10964 10965 10966 10966 10966 10967 10967 10967 10967 10967 10967 10967 10966 10965 10964 10962 10961 10960 10959 10958 10957 10956 10955 10954 10953 10951 10949 10947 10944 10941 10938 10935 10932 10930 10930 10929 10928 10926 10925 10923 10922 10922 10920 10919 10917 10915 10913 10911 10909
10995 10995 10995 10994 10994 10994 10993 10993 10992 10991 10990 10989 10988 10987 10985 10984 10983 10981 10979 10976 10974 10971 10968 10965 10964 10964 10964 10965 10965 10964 10964 10964 10965 10965 10965 10965 10965 10965 10966 10966 10967 10968 10968 10968 10968 10968 10967 10967 10967 10965 10964 10963 10962 10960 10959 10959 10958 10957 10956 10953 10952 10951 10950 10947 10943 10940 10937 10934 10932 10931 10929 10928 10926 10925 10924 10923 10922 10922 10920 10919 10917 10915 10913 10911 10910
10995 10994 10994 10994 10993 10993 10993 10992 10991 10990 10990 10989 10988 10987 10986 10985 10984 10982 10980 10978 10975 10973 10970 10968 10966 10966 10966 10967 10967 10967 10966 10966 10966 10966 10965 10965 10966 10966 10967 10967 10968 10968 10968 10968 10968 10968 10968 10968 10967 10967 10966 10965 10963 10963 10962 10961 10960 10959 10958 10955 10953 10951 10950 10946 10943 10940 10937 10934 10933 10931 10929 10928 10926 10925 10925 10924 10923 10922 10921 10919 10917 10916 10914 10912 10911
10995 10994 10993 10993 10992 10992 10991 10991 10990 10989 10989 10988 10988 10987 10986 10985 10984 10983 10981 10979 10977 10974 10971 10969 10968 10967 10968 10969 10969 10968 10968 10968 10968 10967 10967 10967 10967 10967 10968 10968 10969 10969 10969 10969 10969 10969 10969 10969 10968 10968 10967 10966 10965 10965 10964 10962 10960 10960 10958 10956 10955 10954 10951 10947 10944 10941 10937 10935 10933 10931 10930 10928 10927 10926 10926 10925 10924 10924 10922 10921 10919 10917 10915 10914 10913
10994 10993 10993 10992 10992 10991 10991 10990 10989 10988 10988 10987 10987 10986 10985 10984 10983 10982 10981 10979 10977 10975 10973 10971 10970 10969 10969 10970 10970 10970 10970 10970 10969 10969 10969 10968 10969 10969 10969 10970 10970 10970 10970 10971 10971 10971 10970 10970 10969 10969 10968 10967 10966 10966 10965 10963 10961 10959 10958 10958 10957 10956 10954 10950 10946 10943 10939 10936 10934 10932 10931 10929 10929 10928 10927 10927 10926 10925 10924 10922 10920 10918 10916 10915 10914
10993 10993 10992 10992 10991 10991 10990 10989 10988 10987 10986 10986 10985 10985 10984 10983 10982 10981 10980 10979 10977 10975 10974 10972 10971 10971 10971 10971 10971 10971 10971 10971 10971 10971 10971 10971 10970 10971 10971 10971 10972 10972 10972 10972 10972 10972 10972 10970 10970 10969 10969 10968 10968 10968 10967 10965 10963 10960 10959 10958 10957 10956 10954 10951 10948 10945 10941 10938 10935 10933 10932 10931 10930 10929 10929 10928 10928 10927 10925 10923 10921 10919 10918 10916 10916
10993 10992 10992 10991 10991 10990 10990 10989 10988 10987 10986 10985 10985 10984 10983 10982 10981 10981 10980 10979 10978 10976 10975 10973 10972 10972 10972 10972 10972 10972 10972 10972 10972 10973 10973 10972 10972 10972 10973 10973 10973 10974 10973 10973 10974 10974 10973 10971 10970 10970 10970 10969 10969 10969 10968 10967 10965 10963 10961 10959 10958 10956 10954 10952 10950 10947 10943 10940 10937 10935 10934 10933 10932 10931 10931 10930 10929 10928 10926 10925 10922 10920 10919 10918 10917
10992 10991 10991 10990 10990 10990 10989 10989 10988 10987 10986 10985 10984 10984 10983 10982 10982 10981 10980 10980 10979 10977 10976 10974 10973 10973 10973 10973 10973 10973 10973 10973 10974 10974 10974 10974 10974 10974 10975 10975 10975 10975 10974 10974 10974 10975 10974 10972 10971 10971 10971 10971 10971 10971 10969 10968 10966 10964 10962 10961 10961 10958 10956 10954 10952 10949 10945 10942 10939 10937 10936 10934 10934 10933 10932 10932 10931 10929 10928 10926 10924 10922 10921 10920 10919
10991 10990 10990 10990 10989 10989 10989 10988 10988 10987 10986 10985 10985 10984 10984 10983 10982 10982 10981 10980 10979 10978 10977 10976 10974 10974 10974 10974 10974 10974 10974 10974 10975 10975 10975 10975 10975 10975 10976 10976 10976 10976 10975 10975 10975 10976 10975 10973 10973 10973 10973 10974 10974 10973 10971 10968 10966 10965 10964 10962 10962 10961 10958 10956 10953 10950 10947 10943 10941 10939 10938 10937 10936 10935 10934 10933 10932 10931 10930 10927 10925 10924 10923 10922 10921
10990 10989 10989 10989 10988 10988 10988 10988 10988 10987 10986 10985 10985 10984 10984 10983 10983 10982 10982 10981 10980 10979 10978 10977 10976 10975 10974 10974 10974 10975 10975 10975 10975 10976 10976 10976 10976 10976 10977 10977 10977 10976 10976 10975 10976 10976 10976 10975 10973 10974 10976 10978 10979 10977 10973 10970 10968 10966 10965 10963 10963 10962 10960 10958 10955 10952 10949 10946 10944 10942 10940 10939 10938 10937 10936 10935 10934 10932 10931 10930 10928 10926 10926 10925 10924
10989 10989 10988 10988 10988 10988 10988 10988 10988 10987 10986 10986 10985 10984 10984 10984 10983 10983 10982 10982 10981 10980 10979 10978 10977 10976 10975 10974 10974 10975 10975 10976 10976 10976 10976 10976 10977 10977 10977 10978 10977 10977 10977 10977 10977 10977 10977 10976 10975 10976 10980 10983 10983 10981 10978 10975 10972 10968 10966 10965 10964 10963 10962 10960 10957 10954 10952 10949 10947 10945 10943 10942 10940 10939 10938 10937 10936 10934 10933 10932 10931 10929 10929 10928 10927
10989 10989 10989 10988 10988 10988 10988 10988 10987 10987 10986 10985 10985 10985 10984 10984 10983 10983 10982 10982 10982 10981 10980 10979 10977 10976 10975 10975 10974 10975 10975 10976 10976 10976 10976 10977 10977 10977 10978 10978 10978 10977 10977 10977 10977 10978 10978 10978 10977 10979 10983 10983 10982 10980 10979 10979 10976 10972 10968 10966 10965 10965 10964 10961 10959 10957 10955 10952 10950 10948 10946 10944 10943 10942 10940 10939 10939 10937 10936 10935 10934 10933 10932 10931 10930
10990 10990 10989 10989 10988 10988 10988 10987 10987 10986 10986 10985 10985 10984 10984 10984 10983 10983 10983 10982 10982 10981 10981 10980 10978 10977 10976 10975 10974 10974 10975 10975 10976 10976 10976 10976 10977 10977 10977 10978 10978 10977 10978 10978 10978 10978 10978 10978 10978 10979 10982 10981 10980 10979 10978 10977 10978 10976 10971 10967 10964 10964 10964 10962 10961 10960 10959 10956 10954 10951 10949 10947 10946 10945 10943 10942 10942 10940 10939 10939 10938 10936 10935 10935 10934
10990 10989 10989 10989 10988 10987 10987 10986 10986 10985 10985 10985 10984 10984 10984 10984 10983 10983 10983 10982 10982 10982 10981 10980 10979 10978 10977 10975 10975 10974 10974 10975 10975 10976 10976 10976 10976 10977 10977 10978 10978 10977 10977 10978 10978 10978 10978 10978 10978 10978 10979 10980 10979 10979 10977 10976 10978 10979 10976 10971 10967 10965 10965 10966 10965 10964 10962 10961 10957 10954 10952 10951 10949 10948 10946 10945 10945 10943 10942 10942 10941 10939 10938 10938 10937
10989 10989 10989 10988 10987 10986 10985 10985 10985 10984 10984 10984 10984 10984 10984 10983 10983 10983 10983 10982 10982 10981 10981 10980 10979 10978 10977 10976 10975 10974 10974 10974 10974 10975 10976 10976 10976 10976 10977 10978 10978 10977 10977 10978 10978 10978 10978 10978 10978 10978 10979 10979 10979 10979 10978 10978 10979 10980 10977 10974 10972 10970 10971 10972 10971 10968 10966 10964 10961 10957 10955 10954 10952 10951 10950 10949 10948 10947 10945 10945 10944 10942 10941 10940 10939
10988 10988 10988 10987 10986 10986 10984 10983 10983 10983 10983 10983 10983 10983 10983 10983 10983 10982 10982 10982 10982 10981 10981 10980 10980 10978 10978 10976 10975 10974 10973 10973 10974 10974 10975 10976 10975 10975 10976 10977 10977 10977 10977 10978 10979 10978 10979 10979 10979 10979 10979 10979 10979 10979 10979 10978 10979 10978 10977 10975 10974 10974 10975 10976 10974 10970 10968 10966 10963 10960 10958 10957 10955 10954 10953 10952 10951 10950 10949 10948 10947 10946 10944 10943 10942
10988 10988 10987 10986 10986 10985 10984 10982 10981 10981 10981 10981 10982 10982 10982 10982 10982 10982 10982 10982 10982 10981 10981 10980 10980 10979 10978 10977 10976 10975 10973 10973 10973 10974 10974 10975 10975 10975 10976 10977 10977 10977 10977 10978 10979 10979 10979 10980 10980 10980 10980 10980 10980 10979 10979 10979 10978 10977 10977 10976 10975 10975 10975 10975 10972 10970 10970 10968 10965 10963 10962 10960 10958 10957 10956 10956 10954 10953 10952 10951 10950 10949 10947 10946 10946
10987 10986 10986 10986 10985 10984 10983 10981 10979 10978 10979 10979 10980 10981 10981 10981 10982 10982 10981 10982 10982 10981 10981 10980 10980 10979 10978 10977 10976 10975 10974 10973 10973 10973 10974 10974 10975 10975 10976 10977 10977 10977 10977 10978 10979 10979 10980 10980 10980 10980 10980 10980 10980 10979 10979 10979 10979 10977 10976 10976 10975 10975 10974 10973 10972 10970 10970 10969 10966 10965 10965 10963 10962 10961 10960 10959 10958 10957 10956 10955 10954 10953 10951 10950 10950
10986 10986 10985 10985 10984 10983 10981 10980 10978 10977 10977 10978 10979 10980 10980 10980 10981 10981 10981 10981 10981 10981 10981 10981 10980 10980 10979 10978 10976 10975 10974 10973 10972 10973 10973 10973 10974 10975 10975 10976 10976 10976 10977 10978 10979 10979 10980 10981 10981 10981 10981 10981 10980 10981 10981 10981 10980 10978 10977 10976 10976 10976 10975 10974 10973 10972 10971 10970 10968 10968 10967 10966 10965 10964 10964 10963 10962 10960 10960 10959 10957 10956 10956 10954 10953
10985 10984 10984 10984 10983 10982 10981 10980 10979 10979 10979 10980 10981 10981 10980 10980 10980 10981 10981 10981 10981 10980 10980 10980 10980 10980 10979 10978 10977 10975 10974 10973 10972 10972 10972 10973 10973 10974 10975 10976 10976 10976 10976 10978 10979 10980 10980 10981 10981 10982 10982 10982 10983 10983 10983 10982 10981 10979 10978 10977 10977 10977 10976 10976 10975 10974 10973 10972 10971 10970 10969 10968 10968 10967 10967 10966 10965 10964 10963 10962 10961 10960 10960 10958 10957
10984 10984 10983 10983 10983 10981 10981 10980 10980 10980 10981 10981 10982 10982 10982 10981 10980 10980 10981 10980 10980 10980 10980 10980 10980 10979 10979 10978 10977 10976 10974 10973 10972 10972 10972 10972 10973 10973 10974 10975 10975 10975 10976 10977 10979 10980 10980 10981 10982 10982 10983 10983 10984 10984 10984 10983 10982 10981 10979 10979 10979 10978 10978 10977 10977 10976 10975 10974 10974 10972 10972 10971 10970 10970 10969 10969 10969 10968 10967 10966 10965 10964 10963 10962 10961
10982 10984 10983 10983 10982 10980 10979 10980 10980 10981 10982 10982 10983 10983 10982 10982 10981 10980 10981 10981 10980 10980 10979 10979 10979 10979 10978 10978 10976 10976 10974 10973 10972 10972 10971 10971 10972 10972 10973 10974 10974 10975 10975 10976 10978 10979 10980 10981 10981 10982 10983 10984 10985 10985 10985 10984 10983 10982 10981 10981 10981 10980 10979 10979 10979 10978 10977 10977 10976 10975 10974 10974 10973 10973 10972 10972 10971 10970 10969 10969 10968 10967 10966 10966 10965
10982 10985 10986 10984 10982 10980 10979 10979 10980 10982 10982 10982 10982 10982 10982 10982 10982 10981 10981 10981 10981 10980 10979 10979 10979 10978 10978 10977 10976 10975 10974 10973 10972 10971 10971 10970 10970 10971 10972 10973 10974 10974 10974 10976 10977 10979 10980 10981 10981 10982 10982 10984 10984 10985 10985 10984 10984 10983 10982 10982 10982 10982 10981 10981 10981 10981 10980 10979 10979 10978 10977 10977 10976 10975 10975 10974 10974 10973 10972 10971 10970 10970 10969 10969 10969
10982 10986 10987 10984 10982 10980 10979 10979 10980 10981 10982 10982 10982 10982 10981 10982 10982 10982 10982 10982 10982 10981 10980 10979 10979 10978 10978 10977 10976 10975 10974 10973 10972 10970 10970 10969 10969 10970 10971 10972 10973 10973 10974 10975 10976 10978 10979 10981 10981 10981 10982 10983 10984 10985 10985 10985 10984 10984 10984 10984 10984 10984 10983 10983 10983 10983 10982 10982 10981 10981 10980 10979 10978 10978 10977 10976 10976 10975 10974 10973 10973 10973 10972 10972 10972
10979 10983 10984 10981 10979 10979 10979 10979 10979 10980 10981 10981 10982 10982 10982 10982 10982 10982 10983 10982 10982 10981 10980 10979 10979 10978 10978 10977 10976 10975 10973 10972 10971 10970 10969 10968 10968 10968 10969 10971 10972 10973 10973 10974 10975 10977 10978 10980 10981 10981 10981 10982 10983 10984 10985 10985 10985 10985 10985 10985 10985 10985 10985 10985 10985 10985 10984 10984 10984 10983 10983 10982 10981 10980 10979 10978 10978 10977 10976 10976 10976 10976 10976 10976 10975
10974 10978 10979 10978 10976 10977 10979 10979 10979 10981 10982 10983 10983 10982 10982 10982 10982 10982 10982 10981 10981 10980 10979 10978 10978 10977 10977 10977 10976 10975 10973 10971 10970 10969 10968 10968 10967 10967 10968 10969 10971 10972 10972 10973 10974 10976 10977 10979 10980 10981 10981 10982 10982 10983 10984 10984 10985 10985 10986 10985 10986 10986 10986 10986 10986 10986 10986 10986 10986 10985 10984 10984 10983 10982 10981 10980 10979 10979 10979 10979 10979 10979 10979 10979 10979
10969 10972 10975 10975 10975 10976 10977 10978 10980 10982 10983 10984 10985 10984 10982 10981 10981 10981 10981 10981 10980 10979 10978 10977 10977 10977 10976 10976 10976 10975 10973 10971 10970 10969 10968 10967 10966 10965 10966 10968 10970 10971 10972 10972 10973 10975 10976 10977 10979 10980 10981 10981 10982 10983 10984 10984 10985 10986 10986 10986 10986 10986 10987 10987 10987 10987 10987 10987 10987 10987 10986 10986 10985 10984 10983 10982 10981 10981 10981 10981 10981 10981 10982 10982 10982
10965 10968 10970 10972 10974 10974 10975 10976 10977 10977 10977 10980 10983 10983 10981 10980 10980 10979 10980 10980 10979 10978 10977 10977 10976 10976 10976 10975 10975 10974 10973 10971 10969 10968 10967 10966 10965 10964 10964 10966 10968 10970 10971 10972 10972 10974 10975 10976 10977 10979 10980 10981 10981 10982 10983 10983 10984 10985 10986 10986 10987 10987 10987 10987 10987 10988 10988 10988 10988 10988 10988 10987 10987 10986 10985 10985 10984 10983 10983 10983 10984 10984 10984 10984 10985
10961 10964 10966 10968 10970 10971 10972 10972 10972 10972 10972 10974 10976 10978 10978 10978 10978 10978 10978 10978 10977 10976 10975 10975 10975 10974 10974 10974 10974 10973 10972 10971 10969 10967 10966 10965 10964 10963 10963 10964 10966 10969 10970 10971 10971 10972 10974 10975 10976 10978 10979 10980 10981 10981 10982 10982 10983 10984 10986 10986 10987 10987 10987 10987 10987 10988 10988 10989 10989 10989 10989 10989 10989 10988 10987 10987 10986 10986 10985 10985 10985 10985 10986 10986 10986
10959 10961 10963 10965 10966 10967 10968 10968 10969 10970 10970 10971 10970 10970 10972 10975 10977 10978 10978 10977 10975 10974 10973 10973 10973 10972 10973 10973 10972 10972 10971 10970 10969 10967 10965 10964 10963 10963 10962 10963 10964 10967 10969 10970 10970 10971 10973 10974 10975 10976 10978 10979 10980 10980 10981 10981 10982 10983 10985 10986 10986 10987 10987 10987 10987 10988 10988 10989 10990 10990 10990 10990 10990 10990 10989 10989 10988 10988 10987 10987 10987 10987 10987 10987 10988
10957 10959 10960 10962 10963 10964 10965 10965 10966 10967 10968 10969 10967 10966 10968 10971 10974 10976 10976 10974 10973 10972 10971 10971 10971 10970 10971 10971 10970 10970 10969 10968 10967 10966 10965 10963 10963 10962 10962 10962 10963 10965 10967 10969 10969 10970 10971 10973 10974 10975 10976 10977 10979 10979 10980 10981 10981 10982 10984 10985 10986 10986 10987 10987 10987 10988 10988 10989 10990 10990 10990 10991 10991 10991 10991 10990 10990 10989 10989 10989 10989 10988 10989 10989 10989
10955 10956 10958 10959 10961 10961 10962 10962 10963 10965 10966 10967 10965 10965 10968 10970 10972 10973 10971 10970 10970 10969 10968 10969 10968 10968 10968 10968 10968 10967 10966 10965 10965 10964 10964 10963 10962 10962 10961 10961 10962 10963 10965 10967 10969 10969 10970 10971 10973 10974 10975 10976 10977 10978 10979 10980 10981 10981 10983 10984 10985 10986 10987 10987 10987 10988 10988 10989 10989 10990 10991 10991 10991 10992 10992 10992 10991 10991 10990 10990 10990 10990 10990 10990 10990
10953 10954 10956 10957 10958 10959 10959 10959 10960 10962 10964 10965 10964 10965 10967 10968 10969 10968 10966 10967 10967 10966 10965 10965 10965 10966 10966 10966 10966 10965 10964 10963 10962 10962 10963 10962 10962 10961 10961 10961 10961 10961 10963 10965 10967 10969 10969 10971 10972 10973 10974 10975 10976 10977 10979 10979 10980 10981 10982 10984 10985 10985 10986 10987 10987 10987 10988 10988 10989 10990 10991 10991 10992 10992 10992 10992 10992 10992 10992 10991 10991 10991 10990 10990 10990
10950 10952 10954 10955 10956 10956 10957 10957 10958 10959 10960 10961 10962 10962 10963 10964 10965 10964 10963 10964 10965 10964 10963 10963 10963 10963 10963 10964 10964 10963 10962 10961 10960 10960 10961 10961 10961 10961 10961 10960 10960 10960 10961 10963 10965 10967 10968 10970 10971 10972 10973 10974 10975 10976 10978 10978 10979 10980 10981 10983 10984 10985 10986 10986 10987 10987 10988 10988 10989 10990 10991 10991 10992 10992 10993 10993 10993 10993 10992 10992 10992 10991 10991 10991 10991
10948 10950 10951 10952 10953 10953 10954 10954 10955 10956 10957 10958 10959 10959 10960 10960 10961 10960 10960 10961 10961 10961 10961 10960 10960 10960 10961 10962 10963 10962 10961 10960 10960 10959 10959 10960 10960 10960 10960 10960 10960 10959 10960 10961 10963 10965 10967 10968 10970 10971 10972 10973 10974 10975 10976 10977 10978 10980 10981 10982 10983 10984 10985 10986 10986 10987 10987 10988 10989 10989 10990 10991 10992 10993 10993 10993 10993 10993 10993 10993 10992 10992 10992 10992 10991
10945 10947 10948 10949 10950 10950 10951 10952 10952 10953 10954 10955 10956 10956 10957 10957 10957 10957 10957 10958 10958 10958 10958 10958 10958 10958 10959 10960 10960 10960 10960 10960 10960 10960 10959 10959 10959 10958 10959 10959 10959 10959 10959 10960 10961 10963 10965 10966 10968 10969 10971 10972 10973 10974 10975 10976 10977 10979 10980 10981 10982 10983 10984 10985 10986 10986 10987 10988 10988 10989 10990 10991 10992 10993 10993 10993 10994 10994 10994 10993 10993 10993 10992 10992 10992
10942 10944 10945 10946 10946 10947 10948 10949 10949 10950 10951 10952 10952 10953 10954 10954 10954 10954 10954 10954 10955 10955 10956 10956 10956 10956 10957 10958 10958 10958 10958 10958 10959 10959 10960 10960 10959 10958 10957 10958 10958 10958 10958 10959 10959 10961 10962 10964 10966 10967 10969 10970 10971 10972 10973 10975 10976 10977 10979 10980 10981 10982 10983 10984 10985 10986 10987 10987 10988 10989 10990 10991 10992 10992 10993 10993 10994 10994 10994 10994 10994 10993 10993 10993 10993
10939 10940 10941 10942 10943 10944 10945 10946 10946 10947 10948 10948 10949 10949 10950 10950 10950 10951 10951 10952 10952 10952 10953 10954 10954 10954 10955 10955 10956 10956 10957 10956 10956 10958 10960 10960 10959 10957 10956 10956 10957 10957 10957 10957 10958 10959 10960 10962 10964 10965 10967 10968 10970 10971 10972 10973 10974 10976 10977 10978 10980 10981 10982 10983 10984 10985 10986 10987 10988 10988 10989 10990 10991 10992 10993 10993 10993 10994 10994 10994 10994 10994 10994 10994 10994